Regional Weather Roundup
Issued by NWS

Home | Current Version | Previous Version | Graphics & Text | Print | Product List | Glossary On
Versions: 1 2 3 4 5 6 7 8 9 10 11 12 13 14 15 16 17 18 19 20 21 22 23 24 25 26 27 28 29 30 31 32 33 34 35 36 37 38 39 40 41 42 43 44 45 46 47 48 49 50
000
ASUS43 KLMK 170302
RWRKY
KENTUCKY REGIONAL WEATHER ROUNDUP
NATIONAL WEATHER SERVICE LOUISVILLE KY
1100 PM EDT TUE SEP 16 2014

NOTE "FAIR" INDICATES FEW OR NO CLOUDS BELOW 12,000 FEET
WITH NO SIGNIFICANT WEATHER AND/OR OBSTRUCTIONS TO VISIBILITY.

KYZ001>023-026-027-061>063-070>075-170400-
WESTERN AND SOUTH CENTRAL KENTUCKY

CITY           SKY/WX    TMP DP  RH WIND       PRES   REMARKS
PADUCAH        CLEAR     57  51  80 CALM      30.09F
HENDERSON      CLEAR     55  48  76 NE7       30.11R
OWENSBORO      CLEAR     58  53  83 NE3       30.11S
HOPKINSVILLE   CLEAR     57  56  94 N5        30.09R
BOWLING GREEN  CLEAR     60  53  77 N5        30.08S
GLASGOW        CLEAR     58  54  84 NE3       30.09R
$$

KYZ024-025-028>034-038-045-046-053-170400-
NORTH CENTRAL KENTUCKY

CITY           SKY/WX    TMP DP  RH WIND       PRES   REMARKS
LOUISVILLE/SDF CLEAR     58  52  80 NE6       30.10F
LOUISVILLE/LOU CLEAR     57  52  83 NE3       30.11S
FORT KNOX      CLEAR     53  51  95 N3        30.09F
$$

KYZ035>037-039>044-047>052-055>060-089>105-170400-
NORTHEAST KENTUCKY

CITY           SKY/WX    TMP DP  RH WIND       PRES   REMARKS
LEXINGTON      CLEAR     55  51  86 NE6       30.10S
COVINGTON      CLOUDY    58  51  78 N3        30.11S
FRANKFORT      CLEAR     52  51  97 CALM      30.10S
$$

KYZ054-064>069-076>088-106>120-170400-
SOUTHEAST KENTUCKY

CITY           SKY/WX    TMP DP  RH WIND       PRES   REMARKS
JACKSON        MOCLDY    56  54  93 CALM      30.09S FOG
LONDON         CLEAR     58  55  90 N7        30.08S
SOMERSET       NOT AVBL
MIDDLESBORO    CLOUDY    64  59  86 CALM      30.07S
MONTICELLO     CLEAR     58  57  96 CALM      30.10R
$$



USA.gov is the U.S. government's official web portal to all federal, state and local government web resources and services.